Starlink 32402

operational
NORAD ID: 61708 Int'l Des: 2024-196 Owner: SPXS Country: US Constellation: starlink
LEOCIRCULAR

About Starlink 32402

Description loading...

Live Position

Loading 3D Globe...

Upcoming Passes

Altitude History

Altitude vs Time

uPlot chart will show altitude changes over time

Two-Line Element Set

1 61708U 24196B 25351.11078916 .00001651 00000-0 67878-4 0 9996
2 61708 53.1613 124.8946 0001220 68.9563 291.1568 15.30192054 64517
Epoch: Dec 17, 2025 • Age: 17 hours

Current Status

Altitude 487.8 km
Velocity 7.62 km/s
Sub-Earth Point -37.48°S, 64.77°E
Launch Date Oct 30, 2024
Age 1.1 years
Type internet

Technical Details

Classification Payload
Mass 730.00 kg
Dry Mass 700.00 kg
Total Mass 730.00 kg
Length 0.30 m
Diameter 4.10 m
Span 29.00 m
Shape Box + pan
Manufacturer SPXS
Bus Type Starlink V2M
Phase Status In Orbit
Owner/State SPXS/US

Large Constellations

Loading constellations...